This is the latest recevied weather packets stored in our database for station/object N4WFF. If no packets are shown the sender has not sent any weather packets the latest 10 day(s).
| Time | Temp. | Humidity | Pressure | Rain* | Wind** | Luminosity | Snow |
|---|---|---|---|---|---|---|---|
| 1777429556 | 19.44° C | 93% | 1017.6 hPa | 0 mm | - | 0 W/m² | - |
| 1777428963 | 19.44° C | 93% | 1017.5 hPa | 0 mm | - | 0 W/m² | - |
| 1777428655 | 19.44° C | 93% | 1017.6 hPa | 0 mm | - | 0 W/m² | - |
| 1777428355 | 19.44° C | 93% | 1017.7 hPa | 0 mm | - | 0 W/m² | - |
| 1777428055 | 19.44° C | 93% | 1017.7 hPa | 0 mm | - | 0 W/m² | - |
| 1777425356 | 20° C | 91% | 1017 hPa | 0 mm | - | 0 W/m² | - |
| 1777425056 | 20° C | 91% | 1017.2 hPa | 0 mm | - | 0 W/m² | - |
| 1777424455 | 20° C | 91% | 1017.3 hPa | 0 mm | - | 0 W/m² | - |
| 1777424155 | 20° C | 91% | 1017.4 hPa | 0 mm | - | 0 W/m² | - |
| 1777423856 | 20° C | 91% | 1017.4 hPa | 0 mm | - | 0 W/m² | - |
| 1777423555 | 20° C | 90% | 1017.5 hPa | 0 mm | - | 0 W/m² | - |
| 1777423255 | 20° C | 90% | 1017.5 hPa | 0 mm | - | 0 W/m² | - |
| 1777422956 | 20° C | 90% | 1017.5 hPa | 0 mm | - | 0 W/m² | - |
| 1777422656 | 20.56° C | 90% | 1017.5 hPa | 0 mm | - | 0 W/m² | - |
| 1777422355 | 20.56° C | 90% | 1017.6 hPa | 0 mm | - | 0 W/m² | - |
| 1777422056 | 20.56° C | 90% | 1017.6 hPa | 0 mm | - | 1 W/m² | - |
| 1777421755 | 20.56° C | 90% | 1017.9 hPa | 0 mm | - | 1 W/m² | - |
| 1777421457 | 20.56° C | 89% | 1018.4 hPa | 0.51 mm | - | 1 W/m² | - |
| 1777417555 | 23.89° C | 77% | 1017.6 hPa | 0.51 mm | - | 11 W/m² | - |
| 1777417257 | 23.89° C | 75% | 1017.6 hPa | 0.76 mm | - | 13 W/m² | - |
| 1777416955 | 24.44° C | 74% | 1017.5 hPa | 0 mm | - | 16 W/m² | - |
| 1777416656 | 24.44° C | 74% | 1017.6 hPa | 0 mm | - | 19 W/m² | - |
| 1777416356 | 24.44° C | 73% | 1018 hPa | 0 mm | - | 25 W/m² | - |
| 1777416056 | 24.44° C | 73% | 1018.1 hPa | 0 mm | - | 32 W/m² | - |
| 1777415756 | 24.44° C | 73% | 1018.3 hPa | 0 mm | - | 40 W/m² | - |
* Rain latest hour (hover to see other rain measurements)
** Current wind speed in m/s (hover to see current wind gust speed)